User: anonymous
Location: Unspecified
(0.0000°N, 0.0000°E)
Time: 00:06:34
(UTC+02:00)
Language:

CZ-4B DEB - Orbit

View from above orbital plane
View from above orbital plane
View from above satellite
View from above satellite

Ground track
Ground track

The orbit data is extracted from the following two-line orbital elements,

1 33411U 08053D   14113.12750310  .00020327  00000-0  12638-2 0  1614
2 33411 097.5187 133.5783 0013262 092.9871 267.2876 15.09595726299985
Epoch (UTC): 23 April 2014 03:03:36
Eccentricity: 0.0013262
inclination: 97.5187°
perigee height: 528 km
apogee height: 546 km
right ascension of ascending node: 133.5783°
argument of perigee: 92.9871°
revolutions per day: 15.09595726
mean anomaly at epoch: 267.2876°
orbit number at epoch: 29998

The dashed part of the orbit path shows where the satellite is in the earth's shadow,  

DLR